Location: Kaiser
(34.0939°N, 117.4889°W)
Time: 21:42:36
(UTC+00:00)

Cosmos 44 Rocket - Pass Details

Date: 29 October 2020
Orbit: 642 x 748 km, 65.1° (Epoch: 25 November)

Event Time Altitude Azimuth Distance (km) Brightness Sun altitude
Exits shadow 12:10:28 56° 207° (SSW) 881 3.6 -24.7°
Drops below altitude 10° 12:14:53 10° 165° (SSE) 2,254 6.1 -23.8°
Sets 12:17:16 0° 162° (SSE) 3,171 6.9 -23.3°
